W0KHZ Weather Reports


time (UTC)temp
C
wind
direction
speed
KPH
gust
KPH
rain 1hr
cm
rain 24hr
cm
rain mn
cm
humidity
%
barometer
mb
20260905025521 23 0.0 0.0 0.00 0.08 0.08 88 1041.8
20260905025018 23 0.0 0.0 0.00 0.08 0.08 89 1041.7
20260905024534 23 0.0 0.0 0.00 0.08 0.08 88 1041.7
20260905024031 23 0.0 0.0 0.00 0.08 0.08 88 1041.5
20260905023528 23 0.0 0.0 0.00 0.08 0.08 88 1041.6
20260905023025 23 0.0 0.0 0.00 0.08 0.08 87 1041.6
20260905022523 23 0.0 0.0 0.00 0.08 0.08 87 1041.6
20260905022020 24 0.0 0.0 0.00 0.08 0.08 87 1041.4
20260905021536 24 0.0 0.0 0.00 0.08 0.08 87 1041.4
20260905021213 24 0.0 0.0 0.00 0.08 0.08 86 1041.4
20260905020530 24 0.0 0.0 0.00 0.08 0.08 86 1041.5
20260905020027 24 0.0 0.0 0.00 0.08 0.08 86 1041.4
20260905015524 24 0.0 0.0 0.00 0.08 0.08 85 1041.4
20260905015021 24 0.0 0.0 0.00 0.08 0.08 85 1041.4
20260905014538 25 0.0 0.0 0.00 0.08 0.08 85 1041.3
20260905014034 25 0.0 0.0 0.00 0.08 0.08 85 1041.2
20260905013531 25 0.0 0.0 0.00 0.08 0.08 85 1041.2
20260905013029 25 0.0 0.0 0.00 0.08 0.08 84 1041.1
20260905012525 25 0.0 0.0 0.00 0.08 0.08 84 1041.2
20260905012023 25 0.0 0.0 0.00 0.08 0.08 84 1041.1
20260905011520 26 0.0 0.0 0.00 0.08 0.08 84 1041.0
20260905011016 26 0.0 0.0 0.00 0.08 0.08 82 1040.9
20260905010533 26 0.0 0.0 0.00 0.08 0.08 82 1040.9
20260905010030 26 0.0 0.0 0.00 0.08 0.08 81 1040.9
20260905005528 26 0.0 0.0 0.00 0.08 0.08 80 1040.9
20260905005025 27 0.0 0.0 0.00 0.08 0.08 80 1040.8
20260905004522 27 300 0.0 1.6 0.00 0.08 0.08 79 1040.8
20260905004019 27 0.0 0.0 0.00 0.08 0.08 78 1040.8
20260905003535 27 0.0 0.0 0.00 0.08 0.08 78 1040.6
20260905003032 27 300 0.0 1.6 0.00 0.08 0.08 78 1040.6
20260905002529 27 0.0 0.0 0.00 0.08 0.08 77 1040.5
20260905002046 28 0.0 0.0 0.00 0.08 0.08 77 1040.5
20260905001543 28 0.0 0.0 0.00 0.08 0.08 77 1040.5
20260905001020 28 0.0 0.0 0.00 0.08 0.08 76 1040.4
20260905000537 28 301 0.0 1.6 0.00 0.08 0.08 76 1040.4
20260905000033 28 0.0 0.0 0.00 0.08 0.08 75 1040.2
20260904235530 28 300 0.0 1.6 0.00 0.08 0.08 75 1040.3
20260904235027 28 301 0.0 1.6 0.00 0.08 0.08 75 1040.4
20260904234524 28 301 0.0 1.6 0.00 0.08 0.08 75 1040.4
20260904234022 28 313 0.0 1.6 0.00 0.08 0.08 75 1040.5
20260904233519 28 2 0.0 1.6 0.00 0.08 0.08 74 1040.5
20260904233035 29 1 1.6 6.4 0.00 0.08 0.08 74 1040.4
20260904232552 28 164 0.0 3.2 0.00 0.08 0.08 74 1040.5
20260904232028 29 164 0.0 1.6 0.00 0.08 0.08 74 1040.5
20260904231526 29 164 0.0 1.6 0.00 0.08 0.08 74 1040.6
20260904231022 29 164 0.0 1.6 0.00 0.08 0.08 74 1040.5
20260904230520 28 164 0.0 1.6 0.00 0.08 0.08 73 1040.5
20260904230016 29 160 1.6 4.8 0.00 0.08 0.08 74 1040.7
20260904225533 29 136 1.6 4.8 0.00 0.08 0.08 74 1040.6
20260904225030 29 136 0.0 1.6 0.00 0.08 0.08 74 1040.6
20260904224528 29 136 0.0 1.6 0.00 0.08 0.08 73 1040.6
20260904224024 29 136 0.0 3.2 0.00 0.08 0.08 73 1040.6
20260904223522 29 136 0.0 3.2 0.00 0.08 0.08 73 1040.6
20260904223019 29 136 1.6 3.2 0.00 0.08 0.08 73 1040.7
20260904222534 30 136 0.0 1.6 0.00 0.08 0.08 72 1040.7
20260904222031 30 136 0.0 1.6 0.00 0.08 0.08 72 1040.7
20260904221549 30 136 0.0 1.6 0.00 0.08 0.08 72 1040.6
20260904221026 30 131 0.0 1.6 0.00 0.08 0.08 72 1040.4
20260904220523 30 130 0.0 3.2 0.00 0.08 0.08 72 1040.2
20260904220020 30 126 1.6 3.2 0.00 0.08 0.08 71 1040.1
20260904215517 30 124 1.6 3.2 0.00 0.08 0.08 71 1040.1
20260904215034 30 124 1.6 1.6 0.00 0.08 0.08 71 1040.1
20260904214530 30 124 1.6 3.2 0.00 0.08 0.08 71 1040.2
20260904214027 30 124 1.6 4.8 0.00 0.08 0.08 71 1040.2
20260904213545 30 124 1.6 3.2 0.00 0.08 0.08 70 1040.4
20260904213042 30 112 1.6 3.2 0.00 0.08 0.08 71 1040.6
20260904212519 30 112 1.6 3.2 0.00 0.08 0.08 71 1040.7
20260904212035 30 107 1.6 3.2 0.00 0.08 0.08 72 1040.6
20260904211532 30 88 1.6 1.6 0.00 0.08 0.08 73 1040.4
20260904211029 30 88 1.6 3.2 0.00 0.08 0.08 72 1040.4
20260904210526 30 79 1.6 3.2 0.00 0.08 0.08 72 1040.4
20260904210023 30 156 1.6 4.8 0.00 0.08 0.08 72 1040.3
20260904205520 31 187 1.6 3.2 0.00 0.08 0.08 72 1040.3
20260904205018 31 126 1.6 6.4 0.00 0.08 0.08 74 1040.3
20260904204554 30 130 1.6 6.4 0.00 0.08 0.08 74 1040.3
20260904204031 30 116 1.6 3.2 0.00 0.08 0.08 74 1040.4
20260904203528 31 116 1.6 3.2 0.00 0.08 0.08 74 1040.3
20260904203025 31 116 1.6 3.2 0.00 0.08 0.08 73 1040.3
20260904202542 31 149 1.6 4.8 0.00 0.08 0.08 74 1040.3
20260904202019 31 166 1.6 4.8 0.00 0.08 0.08 74 1040.2
20260904201535 30 166 1.6 6.4 0.00 0.08 0.08 74 1040.2
20260904201032 30 138 3.2 6.4 0.00 0.08 0.08 74 1040.2
20260904200529 30 144 3.2 6.4 0.00 0.08 0.08 75 1040.2
20260904200026 30 153 3.2 6.4 0.00 0.08 0.08 75 1040.0
20260904195523 29 153 3.2 6.4 0.00 0.08 0.08 75 1039.9
20260904195100 29 99 0.0 3.2 0.00 0.08 0.08 75 1040.0
20260904194516 29 99 0.0 3.2 0.00 0.08 0.08 74 1040.2
20260904194033 30 81 1.6 4.8 0.00 0.08 0.08 74 1040.5
20260904193530 30 149 1.6 6.4 0.00 0.08 0.08 74 1040.4
20260904193027 30 150 1.6 3.2 0.00 0.08 0.08 73 1040.4
20260904192524 30 147 3.2 4.8 0.00 0.08 0.08 73 1040.4
20260904192021 30 135 1.6 4.8 0.00 0.08 0.08 72 1040.3
20260904191519 30 102 1.6 3.2 0.00 0.08 0.08 72 1040.4
20260904191035 30 147 3.2 6.4 0.00 0.08 0.08 73 1040.2
20260904190532 30 147 1.6 3.2 0.00 0.08 0.08 73 1040.3
20260904190049 30 153 3.2 4.8 0.00 0.08 0.08 75 1040.2
20260904185526 30 150 1.6 6.4 0.00 0.08 0.08 76 1040.2
20260904185023 29 155 1.6 4.8 0.00 0.08 0.08 77 1040.4
20260904184521 29 155 3.2 6.4 0.00 0.08 0.08 77 1040.5
20260904184017 29 121 1.6 4.8 0.00 0.08 0.08 77 1040.7
20260904183533 29 116 1.6 3.2 0.00 0.08 0.08 77 1040.7
20260904183030 29 125 3.2 9.7 0.00 0.08 0.08 78 1040.7
20260904182527 29 172 3.2 9.7 0.00 0.08 0.08 79 1040.6
20260904182025 28 155 3.2 6.4 0.00 0.08 0.08 80 1040.6
20260904181522 28 172 3.2 9.7 0.00 0.08 0.08 80 1040.6
20260904181039 28 143 1.6 4.8 0.00 0.08 0.08 82 1040.6
20260904180535 27 155 3.2 6.4 0.00 0.08 0.08 82 1040.5
20260904180032 27 163 1.6 4.8 0.00 0.08 0.08 83 1040.5
20260904175529 27 163 1.6 4.8 0.00 0.08 0.08 83 1040.7
20260904175027 27 163 0.0 1.6 0.00 0.08 0.08 83 1040.6
20260904174523 26 163 0.0 4.8 0.00 0.08 0.08 83 1040.4
20260904174020 26 163 0.0 3.2 0.00 0.08 0.08 84 1040.4
20260904173518 26 163 0.0 1.6 0.00 0.08 0.08 84 1040.5
20260904173034 26 164 1.6 1.6 0.00 0.08 0.08 83 1040.6
20260904172531 26 164 0.0 3.2 0.00 0.08 0.08 83 1040.6
20260904172028 26 164 0.0 3.2 0.00 0.08 0.08 83 1040.7
20260904171525 26 164 0.0 4.8 0.00 0.08 0.08 83 1041.0
20260904171021 26 0.0 0.0 0.00 0.08 0.08 82 1040.7
20260904170518 26 0.0 0.0 0.00 0.08 0.08 83 1040.6
20260904170033 26 0.0 0.0 0.00 0.08 0.08 83 1040.7
20260904165551 27 0.0 0.0 0.00 0.08 0.08 82 1040.7
20260904165028 27 0.0 0.0 0.00 0.08 0.08 82 1040.6
20260904164525 27 0.0 0.0 0.00 0.08 0.08 82 1040.7
20260904164021 27 0.0 0.0 0.00 0.08 0.08 81 1040.8
20260904163519 27 0.0 0.0 0.00 0.08 0.08 82 1040.6
20260904163055 27 0.0 0.0 0.00 0.08 0.08 81 1040.4
20260904162532 27 0.0 0.0 0.00 0.08 0.08 82 1040.7
20260904162029 27 0.0 0.0 0.00 0.08 0.08 81 1040.9
20260904161527 27 0.0 0.0 0.00 0.08 0.08 81 1040.7
20260904161024 27 0.0 0.0 0.00 0.10 0.08 80 1040.3
20260904160521 28 0.0 0.0 0.00 0.10 0.08 80 1040.4
20260904160019 28 0.0 0.0 0.00 0.10 0.08 80 1040.5
20260904155535 28 0.0 0.0 0.00 0.10 0.08 79 1040.5
20260904155032 28 0.0 0.0 0.00 0.13 0.08 81 1040.6
20260904154529 28 0.0 0.0 0.00 0.13 0.08 81 1040.5
20260904154127 28 0.0 0.0 0.00 0.15 0.08 82 1040.4
20260904153523 28 0.0 0.0 0.00 0.18 0.08 83 1040.4
20260904153020 27 0.0 0.0 0.00 0.18 0.08 83 1040.4
20260904152537 27 0.0 0.0 0.00 0.18 0.08 83 1040.6
20260904152033 27 0.0 0.0 0.00 0.20 0.08 84 1040.5
20260904151530 27 0.0 0.0 0.00 0.20 0.08 85 1040.6
20260904151108 27 0.0 0.0 0.00 0.20 0.08 86 1040.6
20260904150525 27 0.0 0.0 0.00 0.23 0.08 86 1040.5
20260904150022 26 0.0 0.0 0.00 0.23 0.08 87 1040.4
20260904145519 26 0.0 0.0 0.00 0.23 0.08 88 1040.4
20260904145055 26 0.0 0.0 0.00 0.23 0.08 89 1040.5
20260904144532 25 163 0.0 1.6 0.00 0.23 0.08 89 1040.6
20260904144028 25 0.0 0.0 0.00 0.23 0.08 89 1040.5
20260904143525 25 0.0 0.0 0.00 0.23 0.08 89 1040.4
20260904143043 25 0.0 0.0 0.00 0.23 0.08 90 1040.1
20260904142520 25 0.0 0.0 0.00 0.23 0.08 90 1040.1
20260904142035 25 0.0 0.0 0.00 0.23 0.08 90 1040.1
20260904141532 25 0.0 0.0 0.00 0.23 0.08 90 1040.0
20260904141029 25 0.0 0.0 0.00 0.23 0.08 90 1040.0
20260904140526 24 0.0 0.0 0.00 0.23 0.08 91 1040.1
20260904140024 24 0.0 0.0 0.00 0.23 0.08 91 1040.0
20260904135521 24 0.0 0.0 0.00 0.23 0.08 91 1040.0
20260904135018 24 0.0 0.0 0.00 0.23 0.08 91 1040.1
20260904134533 24 0.0 0.0 0.00 0.23 0.08 91 1040.1
20260904134051 23 0.0 0.0 0.00 0.23 0.08 91 1040.1
20260904133528 23 0.0 0.0 0.00 0.25 0.08 91 1040.2
20260904133026 23 0.0 0.0 0.00 0.25 0.08 91 1040.2
20260904132522 23 0.0 0.0 0.00 0.25 0.08 91 1040.0
20260904132020 23 0.0 0.0 0.00 0.28 0.08 91 1040.0
20260904131517 23 0.0 0.0 0.00 0.28 0.08 91 1040.1
20260904131033 23 0.0 0.0 0.00 0.30 0.08 91 1040.0
20260904130530 23 0.0 0.0 0.00 0.33 0.08 91 1040.1
20260904130027 23 0.0 0.0 0.00 0.36 0.08 91 1040.0
20260904125524 23 0.0 0.0 0.00 0.38 0.08 91 1039.8
20260904125022 23 0.0 0.0 0.08 0.38 0.08 91 1039.7
20260904124519 23 0.0 0.0 0.08 0.43 0.08 90 1039.7
20260904124035 23 164 0.0 1.6 0.08 0.43 0.08 90 1039.8
20260904123532 23 164 0.0 1.6 0.08 0.46 0.08 90 1039.7
20260904123109 23 0.0 0.0 0.08 0.48 0.08 90 1039.6
20260904122546 23 0.0 0.0 0.08 0.51 0.08 90 1039.5
20260904122023 23 164 0.0 1.6 0.08 0.51 0.08 90 1039.5
20260904121520 23 0.0 0.0 0.08 0.51 0.08 90 1039.4
20260904121016 23 0.0 0.0 0.08 0.51 0.08 90 1039.5
20260904120533 23 0.0 0.0 0.08 0.51 0.08 90 1039.4
20260904120030 23 0.0 0.0 0.08 0.51 0.08 90 1039.4
20260904115527 23 0.0 0.0 0.05 0.51 0.05 90 1039.5
20260904115044 23 0.0 0.0 0.00 0.46 0.00 90 1039.3
20260904114522 22 0.0 0.0 0.00 0.46 0.00 90 1039.3
20260904114018 22 0.0 0.0 0.00 0.48 0.00 90 1039.4
20260904113535 22 0.0 0.0 0.00 0.48 0.00 90 1039.1
20260904113052 22 0.0 0.0 0.00 0.51 0.00 90 1039.1
20260904112529 22 0.0 0.0 0.00 0.51 0.00 90 1038.9
20260904112026 22 0.0 0.0 0.00 0.56 0.00 90 1038.8
20260904111523 22 0.0 0.0 0.00 0.56 0.00 89 1039.0
20260904111020 23 0.0 0.0 0.00 0.56 0.00 89 1038.8
20260904110518 23 0.0 0.0 0.00 0.56 0.00 89 1038.8
20260904110055 23 0.0 0.0 0.00 0.56 0.00 89 1038.9
20260904105531 23 0.0 0.0 0.00 0.56 0.00 89 1038.9
20260904105029 23 0.0 0.0 0.00 0.56 0.00 89 1038.9
20260904104525 23 0.0 0.0 0.00 0.56 0.00 89 1039.0
20260904104022 23 0.0 0.0 0.00 0.56 0.00 89 1039.1
20260904103520 23 0.0 0.0 0.00 0.56 0.00 89 1039.0
20260904103016 23 0.0 0.0 0.00 0.56 0.00 89 1039.0
20260904102532 23 0.0 0.0 0.00 0.56 0.00 89 1038.9
20260904102029 24 0.0 0.0 0.00 0.56 0.00 89 1038.9
20260904101526 23 0.0 0.0 0.00 0.56 0.00 89 1038.9
20260904101024 23 0.0 0.0 0.00 0.56 0.00 89 1038.9
20260904100521 23 0.0 0.0 0.00 0.56 0.00 89 1038.9
20260904100018 23 0.0 0.0 0.00 0.56 0.00 89 1038.9
20260904095534 23 0.0 0.0 0.00 0.56 0.00 89 1038.9
20260904095031 23 0.0 0.0 0.00 0.56 0.00 89 1039.0
20260904094527 23 0.0 0.0 0.00 0.56 0.00 89 1039.0
20260904094025 23 0.0 0.0 0.00 0.56 0.00 89 1039.1
20260904093522 23 0.0 0.0 0.00 0.56 0.00 89 1039.1
20260904093019 23 0.0 0.0 0.00 0.56 0.00 89 1039.1
20260904092516 23 0.0 0.0 0.00 0.56 0.00 89 1039.0
20260904092032 23 0.0 0.0 0.00 0.56 0.00 89 1038.9
20260904091549 23 0.0 0.0 0.00 0.56 0.00 89 1039.0
20260904091026 23 0.0 0.0 0.00 0.56 0.00 88 1038.9
20260904090524 23 0.0 0.0 0.00 0.56 0.00 88 1038.9
20260904090041 23 0.0 0.0 0.00 0.56 0.00 88 1039.0
20260904085519 23 0.0 0.0 0.00 0.56 0.00 88 1038.9
20260904085056 24 0.0 0.0 0.00 0.56 0.00 88 1038.9
20260904084531 24 0.0 0.0 0.00 0.56 0.00 88 1038.9
20260904084049 24 0.0 0.0 0.00 0.56 0.00 87 1038.8
20260904083526 25 0.0 0.0 0.00 0.56 0.00 87 1038.6
20260904083043 25 0.0 0.0 0.00 0.56 0.00 88 1038.7
20260904082520 25 0.0 0.0 0.00 0.56 0.00 88 1038.5
20260904082017 25 0.0 0.0 0.00 0.56 0.00 88 1038.4
20260904081533 25 0.0 0.0 0.00 0.56 0.00 89 1038.4
20260904081030 25 0.0 0.0 0.00 0.56 0.00 89 1038.4
20260904080527 25 0.0 0.0 0.00 0.56 0.00 90 1038.5
20260904080024 25 0.0 0.0 0.00 0.56 0.00 90 1038.4
20260904075521 25 0.0 0.0 0.00 0.56 0.00 90 1038.4
20260904075018 25 0.0 0.0 0.00 0.56 0.00 90 1038.4
20260904074554 25 0.0 0.0 0.00 0.56 0.00 90 1038.4
20260904074051 25 0.0 0.0 0.00 0.56 0.00 91 1038.5
20260904073528 24 0.0 0.0 0.00 0.56 0.00 91 1038.6
20260904073025 24 0.0 0.0 0.00 0.56 0.00 91 1038.5
20260904072523 24 0.0 0.0 0.00 0.56 0.00 91 1038.6
20260904072040 24 0.0 0.0 0.00 0.56 0.00 90 1038.6
20260904071516 25 0.0 0.0 0.00 0.56 0.00 91 1038.7
20260904071032 25 0.0 0.0 0.00 0.56 0.00 91 1038.7
20260904070529 25 0.0 0.0 0.00 0.56 0.00 91 1038.7
20260904070026 24 0.0 0.0 0.00 0.56 0.00 91 1038.8
20260904065523 24 0.0 0.0 0.00 0.56 0.00 91 1038.8
20260904065020 24 0.0 0.0 0.00 0.56 0.00 91 1038.8
20260904064537 24 0.0 0.0 0.00 0.56 0.00 91 1038.9
20260904064033 24 0.0 0.0 0.00 0.56 0.00 91 1038.8
20260904063530 24 0.0 0.0 0.00 0.56 0.00 91 1038.8
20260904063027 23 0.0 0.0 0.00 0.56 0.00 91 1038.9
20260904062524 23 0.0 0.0 0.00 0.56 0.00 91 1039.1
20260904062021 23 0.0 0.0 0.00 0.56 0.00 91 1039.1
20260904061519 23 0.0 0.0 0.00 0.56 0.00 91 1039.1
20260904061035 23 0.0 0.0 0.00 0.56 0.00 91 1039.2
20260904060531 23 0.0 0.0 0.00 0.56 0.00 91 1039.2
20260904060028 23 0.0 0.0 0.00 0.56 0.00 91 1039.3
20260904055525 23 0.0 0.0 0.00 0.56 0.00 91 1039.3
20260904055022 23 0.0 0.0 0.00 0.56 0.00 91 1039.4
20260904054520 23 0.0 0.0 0.00 0.56 0.00 91 1039.5
20260904054037 23 0.0 0.0 0.00 0.56 0.00 91 1039.5
20260904053533 23 0.0 0.0 0.00 0.56 0.00 91 1039.5
20260904053030 23 0.0 0.0 0.00 0.56 0.00 91 1039.5
20260904052527 23 0.0 0.0 0.00 0.56 0.00 91 1039.5
20260904052025 23 0.0 0.0 0.00 0.56 0.00 91 1039.4
20260904051522 23 0.0 0.0 0.00 0.56 0.00 91 1039.6
20260904051019 23 0.0 0.0 0.00 0.56 0.00 91 1039.4
20260904050516 23 0.0 0.0 0.00 0.56 0.00 91 1039.5
20260904050032 23 0.0 0.0 0.00 0.56 0.56 91 1039.6
20260904045529 23 0.0 0.0 0.00 0.56 0.56 91 1039.5
20260904045046 23 0.0 0.0 0.00 0.56 0.56 91 1039.6
20260904044523 23 0.0 0.0 0.00 0.56 0.56 91 1039.7
20260904044021 23 0.0 0.0 0.00 0.56 0.56 91 1039.6
20260904043518 23 0.0 0.0 0.00 0.56 0.56 91 1039.6
20260904043034 23 0.0 0.0 0.00 0.56 0.56 91 1039.6
20260904042531 23 0.0 0.0 0.00 0.56 0.56 91 1039.7
20260904042048 23 0.0 0.0 0.00 0.56 0.56 91 1039.7
20260904041525 23 0.0 0.0 0.00 0.56 0.56 91 1039.6
20260904041022 23 0.0 0.0 0.00 0.56 0.56 90 1039.6
20260904040519 23 0.0 0.0 0.00 0.56 0.56 91 1039.6
20260904040035 23 0.0 0.0 0.00 0.56 0.56 90 1039.7
20260904035532 23 164 0.0 1.6 0.00 0.56 0.56 90 1039.7
20260904035029 23 164 0.0 1.6 0.00 0.56 0.56 90 1039.6
20260904034526 23 0.0 0.0 0.00 0.56 0.56 90 1039.7
20260904034023 23 0.0 0.0 0.00 0.56 0.56 90 1039.6
20260904033520 23 164 0.0 3.2 0.00 0.56 0.56 90 1039.5
20260904033037 23 0.0 0.0 0.00 0.56 0.56 90 1039.5
20260904032533 23 0.0 0.0 0.00 0.56 0.56 90 1039.3
20260904032030 23 0.0 0.0 0.00 0.56 0.56 90 1039.4
20260904031547 23 0.0 0.0 0.00 0.56 0.56 90 1039.5
20260904031024 23 0.0 0.0 0.00 0.56 0.56 90 1039.6
20260904030521 23 0.0 0.0 0.00 0.56 0.56 90 1039.6
20260904030038 23 0.0 0.0 0.00 0.56 0.56 90 1039.8